Location: Amherst
(42.5000°N, 72.5000°W)
Time: 06:00:30
(UTC-04:00)

ISS - Pass Details

Date: 13 July 2018
Orbit: 402 x 408 km, 51.6° (Epoch: 21 July)

Event Time Altitude Azimuth Distance (km) Brightness Sun altitude
Exits shadow 02:08:49 31° 334° (NNW) 743 -2.2 -23.5°
Maximum altitude 02:08:54 31° 337° (NNW) 742 -2.1 -23.5°
Drops below altitude 10° 02:11:54 10° 42° (NE) 1,472 -0.1 -23.3°
Sets 02:14:08 0° 53° (NE) 2,335 0.9 -23.2°
